Regional Weather Roundup
Issued by NWS

Home | Current Version | Previous Version | Graphics & Text | Print | Product List | Glossary On
Versions: 1 2 3 4 5 6 7 8 9 10 11 12 13 14 15 16 17 18 19 20 21 22 23 24 25 26 27 28 29 30 31 32 33 34 35 36 37 38 39 40 41 42 43 44 45 46 47 48 49 50
000
ASUS43 KTOP 161059
RWRKS

WEATHER ROUNDUP FOR KANSAS
NATIONAL WEATHER SERVICE GOODLAND KS
500 AM CST MON JAN 16 2017

NOTE:  "FAIR" INDICATES FEW OR NO CLOUDS BELOW 12,000 FEET WITH NO
SIGNIFICANT WEATHER AND/OR OBSTRUCTIONS TO VISIBILITY.

KSZ001>006-013>018-027>032-041>047-161200-
NORTHWEST KANSAS

CITY           SKY/WX    TMP DP  RH WIND       PRES   REMARKS
GOODLAND       FRZ RAIN  30  29  96 N17G24    29.87F WCI  18
HAYS           LGT SNOW  32  31  96 NE15      29.85F FOG     WCI  22
HILL CITY      MIX PCPN  32  32 100 NE10      29.89F FOG     WCI  24
RUSSELL        FRZ RAIN  32  31  96 NE18      29.83F FOG     WCI  20
$$

KSZ061>065-074>080-084>089-161200-
SOUTHWEST KANSAS

CITY           SKY/WX    TMP DP  RH WIND       PRES   REMARKS
DODGE CITY     LGT SNOW  32  31  96 N13       29.81F FOG     WCI  22
ELKHART          N/A     29  22  75 NW7         N/A
GARDEN CITY    LGT SNOW  31  29  92 N12       29.82S VSB 1   WCI  22
GREAT BEND     MIX PCPN  32  31  96 N7        29.85R FOG
LIBERAL        CLOUDY    32  27  80 MISG      29.81F
$$

KSZ066>073-081>083-090>101-161200-
SOUTHEAST KANSAS

CITY           SKY/WX    TMP DP  RH WIND       PRES   REMARKS
CHANUTE        CLOUDY    47  46  97 E9        29.83F
HUTCHINSON     CLOUDY    33  33 100 NE8G20    29.80S
MEDICINE LODGE   N/A     33  32  96 N6        29.80F
NEWTON         LGT RAIN  37  37 100 E13       29.79F FOG     WCI  29
PARSONS        CLOUDY    53  52  96 SE9       29.83F
WICHITA INTL   LGT RAIN  41  41 100 NE6       29.78F FOG
WICHITA JABRA  LGT RAIN  41  41 100 E9        29.78R FOG
WICHITA MCCONL CLOUDY    43  41  93 E10       29.77F FOG
WINFIELD       CLOUDY    48  48 100 SE14      29.78R FOG
$$

KSZ007>012-019>026-033>040-048>060-102>105-161200-
NORTHEAST KANSAS

CITY           SKY/WX    TMP DP  RH WIND       PRES   REMARKS
CONCORDIA      FRZ RAIN  32  32 100 NE13      29.89F FOG     WCI  22
EMPORIA        HVY RAIN  36  36 100 NE13      29.83F FOG     WCI  27
LAWRENCE       LGT RAIN  34  34 100 E10       29.95F FOG     WCI  26
MANHATTAN      LGT RAIN  34  32  92 NE12      29.90F WCI  25
OLATHE IND     LGT RAIN  36  36 100 E7        29.94F
OLATHE EXE     LGT RAIN  35  35 100 E9        29.94F
SALINA           N/A    N/A N/A N/A MISG        N/A
TOPEKA BILLARD LGT RAIN  35  32  88 NE8       29.93F
TOPEKA FORBES  RAIN      35  33  92 E7        29.92F FOG
$$




USA.gov is the U.S. government's official web portal to all federal, state and local government web resources and services.